Location: Unspecified
(52.4292°N, 19.3359°E)
Time: 17:38:12
(UTC+02:00)

Transit 2A Rocket - Pass Details

Date: 27 May 2024
Orbit: 583 x 910 km, 66.7° (Epoch: 22 June)

Event Time Altitude Azimuth Distance (km) Brightness Sun altitude
Rises 10:27:23 0° 319° (NW) 3,363 7.9 49.9°
Reaches altitude 10° 10:29:52 10° 326° (NW) 2,472 7.4 50.2°
Maximum altitude 10:35:26 47° 40° (NE) 1,157 6.5 50.8°
Drops below altitude 10° 10:41:16 10° 113° (ESE) 2,587 8.5 51.5°
Sets 10:43:55 0° 120° (ESE) 3,534 9.0 51.8°
